| time (UTC) | temp C | wind direction | speed KPH | gust KPH | rain 1hr cm | rain 24hr cm | rain mn cm | humidity % | barometer mb |
| 20260505051558 | 12 | 0 | 0.0 | 4.8 | 0.00 | 0.00 | 0.00 | 82 | 1010.3 |
| 20260505050128 | 12 | 0 | 0.0 | 6.4 | 0.00 | 0.00 | 0.00 | 84 | 1010.3 |
| 20260505041610 | 11 | 0 | 0.0 | 3.2 | 0.00 | 0.00 | 0.00 | 87 | 1009.9 |
| 20260505034558 | 11 | 0 | 0.0 | 0.0 | 0.00 | 0.00 | 0.00 | 87 | 1009.8 |
| 20260505033055 | 11 | 0 | 0.0 | 3.2 | 0.00 | 0.00 | 0.00 | 86 | 1009.9 |
| 20260505031559 | 11 | 0 | 1.6 | 4.8 | 0.00 | 0.00 | 0.00 | 86 | 1009.9 |
| 20260505030058 | 11 | 93 | 1.6 | 4.8 | 0.00 | 0.00 | 0.00 | 86 | 1009.9 |
| 20260505024558 | 11 | 0 | 1.6 | 6.4 | 0.00 | 0.00 | 0.00 | 85 | 1009.9 |
| 20260505023058 | 11 | 97 | 3.2 | 4.8 | 0.00 | 0.00 | 0.00 | 84 | 1009.9 |
| 20260505021600 | 12 | 97 | 1.6 | 4.8 | 0.00 | 0.00 | 0.00 | 83 | 1009.8 |
| 20260505020057 | 12 | 97 | 3.2 | 6.4 | 0.00 | 0.00 | 0.00 | 82 | 1009.8 |
| 20260505014631 | 12 | 98 | 3.2 | 6.4 | 0.00 | 0.00 | 0.00 | 81 | 1009.8 |
| 20260505013058 | 13 | 101 | 3.2 | 6.4 | 0.00 | 0.00 | 0.00 | 80 | 1009.8 |
| 20260505011606 | 13 | 94 | 3.2 | 6.4 | 0.00 | 0.00 | 0.00 | 78 | 1009.8 |
| 20260505010100 | 14 | 95 | 3.2 | 6.4 | 0.00 | 0.00 | 0.00 | 76 | 1009.8 |
| 20260505004559 | 14 | 107 | 3.2 | 6.4 | 0.00 | 0.00 | 0.00 | 76 | 1009.9 |
| 20260505003056 | 15 | 102 | 4.8 | 6.4 | 0.00 | 0.00 | 0.00 | 72 | 1009.8 |
| 20260505001631 | 16 | 101 | 3.2 | 6.4 | 0.00 | 0.00 | 0.00 | 70 | 1009.9 |
| 20260505000138 | 17 | 98 | 3.2 | 4.8 | 0.00 | 0.00 | 0.00 | 65 | 1009.8 |
| 20260504234613 | 19 | 100 | 3.2 | 4.8 | 0.00 | 0.00 | 0.00 | 61 | 1009.9 |
| 20260504233107 | 21 | 0 | 0.0 | 3.2 | 0.00 | 0.00 | 0.00 | 54 | 1010.1 |
| 20260504231558 | 21 | 116 | 0.0 | 3.2 | 0.00 | 0.00 | 0.00 | 52 | 1010.0 |
| 20260504230104 | 21 | 116 | 1.6 | 9.7 | 0.00 | 0.00 | 0.00 | 48 | 1010.1 |
| 20260504224611 | 21 | 104 | 1.6 | 6.4 | 0.00 | 0.00 | 0.00 | 48 | 1010.2 |
| 20260504223057 | 21 | 116 | 3.2 | 11.3 | 0.00 | 0.00 | 0.00 | 49 | 1010.2 |
| 20260504221559 | 21 | 88 | 3.2 | 14.5 | 0.00 | 0.00 | 0.00 | 48 | 1010.2 |
| 20260504220100 | 21 | 103 | 1.6 | 9.7 | 0.00 | 0.00 | 0.00 | 51 | 1010.2 |
| 20260504214601 | 21 | 96 | 0.0 | 16.1 | 0.00 | 0.00 | 0.00 | 51 | 1010.4 |
| 20260504213141 | 21 | 101 | 6.4 | 20.9 | 0.00 | 0.00 | 0.00 | 49 | 1010.2 |
| 20260504211607 | 22 | 74 | 3.2 | 14.5 | 0.00 | 0.00 | 0.00 | 48 | 1009.9 |
| 20260504210058 | 21 | 103 | 4.8 | 16.1 | 0.00 | 0.00 | 0.00 | 51 | 1009.9 |
| 20260504204558 | 21 | 257 | 1.6 | 19.3 | 0.00 | 0.00 | 0.00 | 47 | 1009.9 |
| 20260504203120 | 22 | 101 | 3.2 | 12.9 | 0.00 | 0.00 | 0.00 | 48 | 1010.1 |
| 20260504201559 | 21 | 115 | 4.8 | 14.5 | 0.00 | 0.00 | 0.00 | 46 | 1010.0 |
| 20260504200057 | 22 | 97 | 12.9 | 22.5 | 0.00 | 0.00 | 0.00 | 45 | 1010.2 |
| 20260504194608 | 22 | 103 | 3.2 | 22.5 | 0.00 | 0.00 | 0.00 | 47 | 1010.3 |
| 20260504193111 | 22 | 266 | 3.2 | 14.5 | 0.00 | 0.00 | 0.00 | 47 | 1010.4 |
| 20260504191607 | 22 | 122 | 8.0 | 20.9 | 0.00 | 0.00 | 0.00 | 46 | 1010.4 |
| 20260504190117 | 21 | 104 | 16.1 | 24.1 | 0.00 | 0.00 | 0.00 | 48 | 1010.2 |
| 20260504184608 | 21 | 104 | 14.5 | 25.7 | 0.00 | 0.00 | 0.00 | 49 | 1010.3 |
| 20260504183058 | 21 | 94 | 6.4 | 20.9 | 0.00 | 0.00 | 0.00 | 49 | 1010.6 |
| 20260504181601 | 21 | 260 | 4.8 | 19.3 | 0.00 | 0.00 | 0.00 | 48 | 1010.7 |
| 20260504180057 | 21 | 119 | 8.0 | 25.7 | 0.00 | 0.00 | 0.00 | 53 | 1011.1 |
| 20260504174612 | 20 | 51 | 4.8 | 20.9 | 0.00 | 0.00 | 0.00 | 52 | 1011.4 |
| 20260504173100 | 20 | 103 | 4.8 | 22.5 | 0.00 | 0.00 | 0.00 | 54 | 1011.7 |
| 20260504171557 | 19 | 17 | 6.4 | 12.9 | 0.00 | 0.00 | 0.00 | 51 | 1012.2 |
| 20260504140110 | 16 | 102 | 3.2 | 14.5 | 0.00 | 0.00 | 0.00 | 52 | 1013.8 |
| 20260504110119 | 6 | 0 | 0.0 | 0.0 | 0.00 | 0.00 | 0.00 | 90 | 1013.9 |
| 20260504100105 | 7 | 94 | 1.6 | 6.4 | 0.00 | 0.00 | 0.00 | 90 | 1013.9 |
| 20260504090121 | 7 | 0 | 0.0 | 0.0 | 0.00 | 0.00 | 0.00 | 87 | 1014.5 |
| 20260504081558 | 8 | 0 | 0.0 | 0.0 | 0.00 | 0.00 | 0.00 | 84 | 1014.5 |